www.pogodaiklimat.ru

Погода и климат >> Архив погоды >> ОАЭ >> Рай-эль-Хайма аэропорт


ПОГОДА в Рай-эль-Хайма аэропорту

  • Прогноз погоды в Рай-эль-Хайма аэропорту
  • Монитор погоды в Рай-эль-Хайма аэропорту

АРХИВ ПОГОДЫ в Рай-эль-Хайма аэропорту

Время (UTC), дата Ветер
(напр.,м/с)
 
Видим.   Явления Облачность Т
(С)
Тd
(С)
f
(%)
Тe
(С)
Тes
(С)
Комфортность P
(гПа)
Po
(гПа)
Тmin
(С)
Tmax
(С)
R
(мм)
R24
(мм)
S
(см)
12 16.07 С 6 10 км ясно +38.2 +26.0 50 +53 +57 опасность
перегрева
994.4 991.0
15 16.07 СЗ 2 10 км ясно +36.1 +26.0 56 +51 +51 опасность
перегрева
994.9 991.5
18 16.07 ЮЗ 2 10 км ясно +33.5 +26.3 66 +50 +50 опасность
перегрева
996.5 993.1 +43.9
21 16.07 нст 1 10 км ясно +31.6 +26.2 73 +48 +48 опасность
перегрева
996.5 993.0
00 17.07 нст 1 10 км ясно +29.8 +24.9 75 +43 +43 опасность
перегрева
996.1 992.6
03 17.07 СВ 3 8000 м пыль 4/0
[Ac trans Ci fib]
+31.9 +25.8 70 +47 +49 опасность
перегрева
997.3 993.8
06 17.07 В 8-11
{12}
8000 м пыль 3/0
[Ac trans]
+38.6 +22.9 41 +48 +50 опасность
перегрева
997.7 994.3 +29.8 221
09 17.07 В 7 10 км 3/0
[Ac trans]
+40.9 +22.3 35 +49 +54 опасность
перегрева
996.7 993.3
12 17.07 С 5 10 км 4/0
[Ac trans]
+39.0 +26.4 49 +55 +59 опасность
перегрева
995.6 992.2
15 17.07 ЮВ 5 10 км 4/0
[Ci fib]
+38.4 +22.4 40 +47 +47 опасность
перегрева
996.0 992.6
18 17.07 ЮВ 3 10 км 3/0
[Ac trans]
+36.8 +20.6 39 +43 +43 опасность
перегрева
997.2 993.8 +41.8
21 17.07 ЮВ 3 10 км ясно +35.1 +21.1 44 +42 +42 опасность
перегрева
996.9 993.5
00 18.07 СВ 2 10 км ясно +33.3 +26.9 69 +51 +51 опасность
перегрева
996.7 993.3
03 18.07 ЮВ 8 10 км ясно +33.9 +25.7 62 +49 +49 опасность
перегрева
997.8 994.4
09 18.07 ЮВ 8 8000 м пыль 8/1 1200 м
[Cu hum As op]
+37.7 +25.2 49 +51 +53 опасность
перегрева
997.6 994.2
12 18.07 С 5 8000 м пыль 4/0
[Ac trans]
+39.1 +24.9 45 +52 +56 опасность
перегрева
995.7 992.3
15 18.07 С 4 10 км 3/0
[Ac trans]
+37.6 +19.1 34 +42 +42 опасность
перегрева
996.1 992.7
18 18.07 З 2 10 км 3/0
[Ac trans]
+34.1 +23.4 54 +45 +45 опасность
перегрева
997.6 994.2 +39.5
21 18.07 ЮВ 5 19 км ясно +33.5 +23.5 56 +44 +44 опасность
перегрева
996.6 993.2
00 19.07 В 1 10 км ясно +32.6 +24.4 62 +45 +45 опасность
перегрева
996.8 993.4
03 19.07 ЮВ 4 10 км 5/0
[Ac trans]
+33.3 +25.1 62 +47 +48 опасность
перегрева
998.0 994.6
06 19.07 ЮВ 6 10 км 6/0
[Ac trans]
+36.5 +24.4 50 +49 +53 опасность
перегрева
998.3 994.9 +32.5
09 19.07 ЮВ 6 10 км 6/0
[Ac trans]
+39.0 +24.4 44 +51 +57 опасность
перегрева
997.2 993.8
12 19.07 С 5 10 км 6/0
[Ac trans]
+39.0 +25.5 47 +53 +56 опасность
перегрева
995.4 992.0
15 19.07 ЮВ 6-14
{17}
10 км 1/0
[Ac trans]
+37.5 +22.8 43 +47 +47 опасность
перегрева
996.9 993.5 49
18 19.07 ЮВ 2 10 км ясно +35.2 +21.1 44 +42 +42 опасность
перегрева
997.8 994.4 +40.9
21 19.07 ЮВ 5 10 км ясно +34.2 +24.8 58 +47 +47 опасность
перегрева
998.1 994.7
00 20.07 ЮВ 5 10 км ясно +32.4 +26.7 72 +50 +50 опасность
перегрева
997.8 994.3
03 20.07 ЮВ 10 6000 м пыльный позёмок ясно +33.0 +25.7 66 +48 +48 опасность
перегрева
998.8 995.3
06 20.07 В 11 7000 м пыль ясно +36.1 +24.4 51 +48 +48 опасность
перегрева
999.3 995.9 +32.2
09 20.07 С 6 10 км ясно +38.5 +26.4 50 +54 +62 опасность
перегрева
999.2 995.8
12 20.07 С 5 10 км ясно +39.3 +23.2 40 +49 +54 опасность
перегрева
997.6 994.2
15 20.07 С 4 10 км ясно +36.9 +25.1 51 +50 +50 опасность
перегрева
997.3 993.9
18 20.07 СВ 2 10 км ясно +34.8 +25.9 60 +50 +50 опасность
перегрева
998.8 995.4 +40.6
21 20.07 ЮВ 7 10 км ясно +33.3 +25.1 62 +47 +47 опасность
перегрева
998.6 995.2
00 21.07 В 4 10 км ясно +32.7 +24.7 63 +46 +46 опасность
перегрева
999.0 995.5
03 21.07 ЮВ 4 10 км 3/0
[Ci fib]
+33.2 +24.9 62 +47 +48 опасность
перегрева
999.9 996.4
06 21.07 ЮВ 7 10 км ясно +37.8 +23.2 43 +47 +52 опасность
перегрева
1000.1 996.7 +32.0
09 21.07 ЮВ 5 10 км ясно +40.0 +24.1 41 +51 +64 опасность
перегрева
998.7 995.3
12 21.07 СЗ 6 10 км ясно +39.8 +24.8 43 +52 +56 опасность
перегрева
996.8 993.4
15 21.07 СЗ 5 10 км ясно +36.7 +24.6 50 +49 +49 опасность
перегрева
997.0 993.6
18 21.07 ЮВ 3 10 км 5/0
[Ac trans]
+36.0 +24.6 52 +49 +49 опасность
перегрева
997.9 994.5 +41.8
21 21.07 ЮВ 5 10 км 5/0
[Ac trans]
+34.3 +25.7 61 +49 +49 опасность
перегрева
998.5 995.1
00 22.07 ЮВ 3 10 км 6/0
[Ac trans]
+33.7 +25.7 63 +49 +49 опасность
перегрева
997.5 994.1
03 22.07 В 2 10 км 3/0
[Ci fib]
+33.8 +25.5 62 +48 +51 опасность
перегрева
998.2 994.8
06 22.07 В 2 10 км 1/0
[Ac trans]
+39.4 +23.3 40 +49 +64 опасность
перегрева
998.4 995.0 +32.1
09 22.07 С 4 10 км 1/0
[Ci fib]
+41.3 +24.9 40 +54 +67 опасность
перегрева
996.8 993.4
12 22.07 СЗ 5 10 км 3/0
[Ci fib]
+41.0 +23.7 38 +51 +56 опасность
перегрева
995.4 992.0
15 22.07 С 4 10 км ясно +37.1 +24.3 48 +49 +49 опасность
перегрева
995.7 992.3
21 22.07 В 1 10 км ясно +34.1 +25.7 62 +49 +49 опасность
перегрева
995.8 992.4
03 23.07 ЮВ 8 6000 м пыль 3/0
[Ac trans]
+33.6 +25.1 61 +47 +48 опасность
перегрева
996.8 993.4
06 23.07 ЮВ 6 10 км ясно +39.9 +16.8 26 +42 +48 опасность
перегрева
997.3 993.9

 

Местоположение метеостанции Рай-эль-Хайма аэропорт (ОАЭ): широта 25.62 долгота 55.93 высота над уровнем моря 31 м.

В архиве по умолчанию представлена погода в Рай-эль-Хайма аэропорту за последнюю неделю. Архивные данные за месяц целиком и за предыдущие месяцы, начиная с января 2011 года, Вы можете получить, выбрав интересующий диапазон дат из раскрывающегося списка и нажав кнопку "Ввод!".


*Определитесь, кто Вы:
робот инопланетянин человек

Внимание! Время в таблицах - всемирное. Для получения местного времени необходимо прибавить поправку, которая равна 4 ч.

Смотрите также архив погоды в соседних городах и на ближайших метеорологических станциях:

Погода в Дибе (Оман) (32 км)
Погода в Шардже (ОАЭ) (52 км)
Погода в Эль-Хасаб аэропорту (Оман) (68 км)
Погода в Фуджейре (ОАЭ) (70 км)
Погода в Эль-Хасабе (Оман) (73 км)
Погода в Дубае (ОАЭ) (73 км)
Погода в Аль-Мактум аэропорту (ОАЭ) (111 км)
Погода на Острове Абу-Муса (Иран) (113 км)
Погода на Острове Сирри (Иран) (142 км)
Погода в Сухаре (Оман) (146 км)

Пояснения к столбцам:

Ветер - указаны скорость ветра в м/с - средняя за 10 мин, порывы в срок и между сроками (в фигурных скобках) и направление, откуда дует ветер: С - северный, СВ - северо-восточный, В - восточный, ЮВ - юго-восточный, Ю - южный, ЮЗ - юго-западный, З - западный, СЗ - северо-западный.
Видимость - горизонтальная дальность видимости в метрах или километрах. При видимости от 1 до 10 км при отсутствии осадков обычно наблюдается дымка, при ухудшении видимости до 1 км и менее - туман. В сухую погоду видимость может ухудшаться дымом, пылью или мглою.
Явления - указаны атмосферные явления, наблюдавшиеся в срок или в последний час перед сроком; фигурными скобками обозначены явления, наблюдавшиеся между сроками (за 1-3 часа до срока); квадратными скобками обозначены град или гололедные отложения с указанием их диаметра в мм.
Облачность - указаны через наклонную черту общая и нижняя облачность в баллах и высота нижней границы облаков в метрах; квадратными скобками обозначены формы облаков: Ci - перистые, Cs - перисто-слоистые, Cc - перисто-кучевые, Ac - высококучевые, As - высокослоистые, Sc - слоисто-кучевые, Ns - слоисто-дождевые, Cu - кучевые, Cb - кучево-дождевые. Подробнее классификацию облаков см. в Атласе облаков (PDF).
T - Температура воздуха - температура, измеренная на высоте 2 м над землей.
Td - Температура точки росы - температура, при понижении до которой содержащийся в воздухе водяной пар достигнет насыщения.
f - Относительная влажность воздуха - влажноcть воздуха, измеренная на высоте 2 м над землей.
Te - Эффективная температура - температура, которую ощущает одетый по сезону человек в тени. Характеристика душности погоды. При расчете учитывается влияние влажности воздуха и скорости ветра на теплоощущения человека.
Tes - Эффективная температура на солнце - температура, которую ощущает человек, с поправкой на солнечный нагрев. Характеристика знойности погоды. Зависит от высоты солнца над горизонтом, облачности и скорости ветра. Ночью, в пасмурную погоду, а также при ветре 12 м/с и более поправка равна нулю.
P - Атмосферное давление - приведенное к уровню моря атмосферное давление.
Po - Атмосферное давление - измеренное на уровне метеостанции атмосферное давление.
Tmin - Минимальная температура - минимум температуры воздуха на высоте 2 м над землей.
Tmax - Максимальная температура - максимум температуры воздуха на высоте 2 м над землей.
R - Количество осадков - Количество выпавших осадков за период времени, мм. При наведении курсора мыши на число - период времени, за который выпало указанное количество осадков.
R24 - Количество осадков - Количество выпавших осадков за 24 часа, мм.
S - Снежный покров - Высота снежного покрова, см. При наведении курсора мыши на число - состояние снежного покрова и степень покрытия местности в баллах.